| time (UTC) | temp F | wind direction | speed knots | gust knots | rain 1hr in | rain 24hr in | rain mn in | humidity % | barometer mb |
| 20260902101114 | 79 | 172 | 0.0 | 0.0 | 0.00 | 0.00 | 0.00 | 81 | 1015.9 |
| 20260902094112 | 79 | 172 | 0.0 | 0.0 | 0.00 | 0.00 | 0.00 | 80 | 1015.8 |
| 20260902091110 | 80 | 172 | 0.0 | 0.0 | 0.00 | 0.00 | 0.00 | 78 | 1015.9 |
| 20260902084110 | 82 | 172 | 0.0 | 0.0 | 0.00 | 0.00 | 0.00 | 75 | 1015.6 |
| 20260902081110 | 82 | 261 | 0.0 | 0.0 | 0.00 | 0.00 | 0.00 | 74 | 1015.6 |
| 20260902074105 | 84 | 144 | 1.7 | 1.7 | 0.00 | 0.00 | 0.00 | 71 | 1015.9 |
| 20260902071102 | 84 | 189 | 0.9 | 1.7 | 0.00 | 0.00 | 0.00 | 70 | 1015.6 |
| 20260902064101 | 85 | 230 | 0.0 | 0.9 | 0.00 | 0.00 | 0.00 | 69 | 1015.6 |
| 20260902061058 | 85 | 126 | 1.7 | 2.6 | 0.00 | 0.00 | 0.00 | 69 | 1015.9 |
| 20260902054055 | 86 | 189 | 1.7 | 2.6 | 0.00 | 0.00 | 0.00 | 70 | 1015.6 |
| 20260902051051 | 86 | 157 | 2.6 | 5.2 | 0.00 | 0.00 | 0.00 | 69 | 1015.7 |
| 20260902044046 | 87 | 191 | 1.7 | 1.7 | 0.00 | 0.00 | 0.00 | 67 | 1015.8 |
| 20260902041043 | 88 | 155 | 0.9 | 0.9 | 0.00 | 0.00 | 0.00 | 64 | 1015.6 |
| 20260902034043 | 89 | 15 | 0.0 | 0.9 | 0.00 | 0.00 | 0.00 | 60 | 1015.2 |
| 20260902031040 | 89 | 291 | 0.0 | 0.0 | 0.00 | 0.00 | 0.00 | 59 | 1014.9 |
| 20260902024036 | 91 | 274 | 0.0 | 0.0 | 0.00 | 0.00 | 0.00 | 57 | 1014.4 |
| 20260902021036 | 91 | 285 | 0.0 | 0.0 | 0.00 | 0.00 | 0.00 | 56 | 1014.0 |
| 20260902014033 | 92 | 244 | 0.0 | 0.9 | 0.00 | 0.00 | 0.00 | 55 | 1013.5 |
| 20260902011031 | 92 | 280 | 0.0 | 0.0 | 0.00 | 0.00 | 0.00 | 55 | 1013.3 |
| 20260902004027 | 95 | 315 | 0.0 | 0.0 | 0.00 | 0.00 | 0.00 | 51 | 1013.3 |
| 20260902001027 | 96 | 189 | 1.7 | 1.7 | 0.00 | 0.00 | 0.00 | 49 | 1013.3 |
| 20260901234025 | 97 | 18 | 0.0 | 0.9 | 0.00 | 0.00 | 0.00 | 48 | 1013.4 |
| 20260901231021 | 96 | 118 | 0.9 | 0.9 | 0.00 | 0.00 | 0.00 | 49 | 1013.8 |
| 20260901224021 | 97 | 60 | 0.0 | 0.0 | 0.00 | 0.00 | 0.00 | 48 | 1013.7 |
| 20260901221017 | 99 | 68 | 0.0 | 0.9 | 0.00 | 0.00 | 0.00 | 47 | 1014.0 |
| 20260901214013 | 99 | 86 | 0.0 | 0.9 | 0.00 | 0.00 | 0.00 | 46 | 1014.0 |
| 20260901211014 | 99 | 221 | 2.6 | 4.3 | 0.00 | 0.00 | 0.00 | 47 | 1014.2 |
| 20260901204008 | 99 | 73 | 0.9 | 2.6 | 0.00 | 0.00 | 0.00 | 46 | 1014.5 |
| 20260901201008 | 100 | 110 | 2.6 | 2.6 | 0.00 | 0.00 | 0.00 | 47 | 1014.8 |
| 20260901194002 | 96 | 62 | 1.7 | 2.6 | 0.00 | 0.00 | 0.00 | 50 | 1015.3 |
| 20260901191001 | 100 | 37 | 0.9 | 0.9 | 0.00 | 0.00 | 0.00 | 45 | 1015.4 |
| 20260901183956 | 97 | 60 | 0.9 | 1.7 | 0.00 | 0.00 | 0.00 | 48 | 1016.4 |
| 20260901180953 | 95 | 326 | 0.9 | 2.6 | 0.00 | 0.00 | 0.00 | 53 | 1016.5 |
| 20260901173950 | 96 | 165 | 3.5 | 5.2 | 0.00 | 0.00 | 0.00 | 51 | 1017.3 |
| 20260901170949 | 97 | 198 | 1.7 | 4.3 | 0.00 | 0.00 | 0.00 | 53 | 1017.6 |
| 20260901163948 | 93 | 277 | 0.9 | 1.7 | 0.00 | 0.00 | 0.00 | 58 | 1017.6 |
| 20260901160949 | 94 | 299 | 0.0 | 0.0 | 0.00 | 0.00 | 0.00 | 57 | 1017.9 |
| 20260901153946 | 91 | 136 | 1.7 | 1.7 | 0.00 | 0.00 | 0.00 | 61 | 1017.8 |
| 20260901150946 | 89 | 180 | 2.6 | 2.6 | 0.00 | 0.00 | 0.00 | 65 | 1017.7 |
| 20260901143945 | 87 | 186 | 0.9 | 0.9 | 0.00 | 0.00 | 0.00 | 69 | 1018.0 |
| 20260901140945 | 87 | 184 | 0.9 | 0.9 | 0.00 | 0.00 | 0.00 | 70 | 1017.9 |
| 20260901133942 | 86 | 228 | 0.0 | 0.9 | 0.00 | 0.00 | 0.00 | 71 | 1017.7 |
| 20260901130940 | 84 | 224 | 0.9 | 0.9 | 0.00 | 0.00 | 0.00 | 73 | 1018.1 |
| 20260901123940 | 81 | 259 | 0.0 | 0.0 | 0.00 | 0.00 | 0.00 | 77 | 1017.5 |
| 20260901120940 | 79 | 163 | 0.0 | 0.0 | 0.00 | 0.00 | 0.00 | 79 | 1017.0 |
| 20260901113938 | 79 | 266 | 0.0 | 0.0 | 0.00 | 0.00 | 0.00 | 79 | 1016.9 |
| 20260901110938 | 80 | 244 | 0.0 | 0.0 | 0.00 | 0.00 | 0.00 | 76 | 1016.8 |
| 20260901103935 | 80 | 257 | 0.0 | 0.0 | 0.00 | 0.00 | 0.00 | 75 | 1016.6 |